Weather History for Torrington, WY

Change the Weather History Date:

Sunday, April 28, 2013

  Actual Average Record
Temperature  
Mean Temperature 58 °F 51 °F  
Max Temperature 75 °F 66 °F 80 °F (2001)
Min Temperature 40 °F 36 °F 25 °F (2008)
Degree Days  
Heating Degree Days 7 14  
Month to date heating degree days 730 518  
Since 1 July heating degree days 6195 6202  
Cooling Degree Days 0 0  
Month to date cooling degree days 0 0  
Year to date cooling degree days 0 0  
Growing Degree Days 7 (Base 50)    
Moisture  
Dew Point 29 °F    
Average Humidity 40    
Maximum Humidity 64    
Minimum Humidity 16    
Precipitation  
Precipitation T in 0.07 in 0.03 in (2003)
Month to date precipitation 0.71 1.52  
Year to date precipitation 1.25 2.87  
Sea Level Pressure  
Sea Level Pressure 29.78 in    
Wind  
Wind Speed 11 mph (North)    
Max Wind Speed 25 mph    
Max Gust Speed 32 mph    
Visibility 10 miles    
Events      
T = Trace of Precipitation, MM = Missing Value Source: NWS Daily Summary

Daily Weather History Graph

Daily Weather History Graph

Search for Another Location

Airport:

Trip Planner

Search our weather history database for the weather conditions in past years. The results will help you decide how hot, cold, wet, or windy it might be!

Date:

Astronomy

Apr. 28, 2013 Rise Set
Actual Time 5:56 AM MDT 7:52 PM MDT
Civil Twilight 5:25 AM MDT 8:22 PM MDT
Nautical Twilight 4:49 AM MDT 8:59 PM MDT
Astronomical Twilight 4:09 AM MDT 9:40 PM MDT
Moon 11:27 PM MDT (4/28) 8:13 AM MDT (4/28)
Length of Visible Light 14h 56m
Length of Day
13h 56m
Waning Gibbous, 88% of the Moon is Illuminated
Apr 28
Waning Gibbous
May 2
Last Quarter
May 9
New
May 17
First Quarter
May 24
Full

Hourly Weather History & Observations

Time (MDT) Temp. Windchill Dew Point Humidity Pressure Visibility Wind Dir Wind Speed Gust Speed Precip Events Conditions
12:53 AM 46.0 °F 43.1 °F 27.0 °F 47% 29.81 in 10.0 mi SE 5.8 mph - N/A   Clear
1:53 AM 45.0 °F 43.5 °F 27.0 °F 49% 29.80 in 10.0 mi West 3.5 mph - N/A   Clear
2:53 AM 39.9 °F 36.7 °F 28.0 °F 63% 29.80 in 10.0 mi West 4.6 mph - N/A   Clear
3:53 AM 42.1 °F 39.2 °F 28.0 °F 58% 29.79 in 10.0 mi WSW 4.6 mph - N/A   Clear
4:53 AM 48.9 °F - 27.0 °F 43% 29.78 in 10.0 mi WSW 3.5 mph - N/A   Clear
5:53 AM 48.0 °F - 28.0 °F 46% 29.78 in 10.0 mi Calm Calm - N/A   Clear
7:53 AM 55.0 °F - 30.0 °F 38% 29.80 in 10.0 mi WNW 4.6 mph - N/A   Clear
8:53 AM 62.1 °F - 30.9 °F 31% 29.79 in 10.0 mi WNW 6.9 mph - N/A   Clear
9:53 AM 70.0 °F - 27.0 °F 20% 29.79 in 10.0 mi WNW 19.6 mph 26.5 mph N/A   Clear
10:53 AM 72.0 °F - 26.1 °F 18% 29.79 in 10.0 mi WNW 20.7 mph 26.5 mph N/A   Clear
11:53 AM 72.0 °F - 26.1 °F 18% 29.79 in 10.0 mi NNW 20.7 mph 32.2 mph N/A   Clear
12:53 PM 73.0 °F - 28.0 °F 19% 29.80 in 10.0 mi NW 12.7 mph 20.7 mph N/A   Clear
1:53 PM 73.0 °F - 26.1 °F 17% 29.79 in 10.0 mi NNW 11.5 mph 20.7 mph N/A   Clear
2:53 PM 72.0 °F - 27.0 °F 19% 29.79 in 10.0 mi North 10.4 mph 20.7 mph N/A   Clear
3:53 PM 75.0 °F - 27.0 °F 17% 29.74 in 10.0 mi North 12.7 mph 18.4 mph N/A   Clear
4:53 PM 73.0 °F - 30.0 °F 20% 29.75 in 10.0 mi East 13.8 mph - N/A   Mostly Cloudy
5:53 PM 69.1 °F - 30.0 °F 23% 29.75 in 10.0 mi East 17.3 mph - N/A   Scattered Clouds
6:53 PM 66.9 °F - 30.9 °F 26% 29.77 in 10.0 mi ENE 13.8 mph - N/A   Overcast
7:53 PM 64.0 °F - 32.0 °F 30% 29.76 in 10.0 mi East 13.8 mph - N/A   Mostly Cloudy
8:53 PM 60.1 °F - 33.1 °F 36% 29.77 in 10.0 mi East 13.8 mph - N/A   Overcast
9:53 PM 55.0 °F - 35.1 °F 47% 29.78 in 10.0 mi ENE 21.9 mph 27.6 mph 0.00 in   Partly Cloudy
10:53 PM 53.1 °F - 36.0 °F 52% 29.78 in 10.0 mi East 19.6 mph 28.8 mph N/A   Partly Cloudy
11:53 PM 51.1 °F - 35.1 °F 54% 29.83 in 10.0 mi Variable 4.6 mph - N/A   Partly Cloudy